Regional Weather Roundup
Issued by NWS

Home | Current Version | Previous Version | Graphics & Text | Print | Product List | Glossary On
Versions: 1 2 3 4 5 6 7 8 9 10 11 12 13 14 15 16 17 18 19 20 21 22 23 24 25 26 27 28 29 30 31 32 33 34 35 36 37 38 39 40 41 42 43 44 45 46 47 48 49 50
000
ASUS43 KDTX 261301
RWRMI
MICHIGAN HOURLY REGIONAL WEATHER ROUNDUP
NATIONAL WEATHER SERVICE DETROIT/PONTIAC MI
900 AM EDT FRI AUG 26 2016

NOTE: "FAIR" INDICATES FEW OR NO CLOUDS BELOW 12,000 FEET WITH NO
SIGNIFICANT WEATHER AND/OR OBSTRUCTION TO VISIBILITY.

MIZ047>049-052>055-059>063-066>070-074>076-081>083-261400-
SOUTHEAST LOWER MICHIGAN

CITY           SKY/WX    TMP DP  RH WIND       PRES   REMARKS
ADRIAN         MOSUNNY   67  63  87 W3        30.17R
ALMA           SUNNY     67  66  96 W6        30.14R
ANN ARBOR      SUNNY     71  65  81 W6        30.14R
BAD AXE        MOSUNNY   66  64  92 CALM      30.11R
CARO           MOSUNNY   67  64  89 W5        30.11R
DETROIT CITY   SUNNY     71  63  75 NW5       30.13R
DETROIT        PTSUNNY   71  63  75 W5        30.14R
FLINT          MOSUNNY   70  64  81 W7        30.14R
GROSSE ILE     SUNNY     71  62  75 NW5       30.13R
HILLSDALE      MOSUNNY   68  63  84 CALM      30.18R
HOWELL         MOSUNNY   69  65  88 NW7       30.15R

CITY           SKY/WX    TMP DP  RH WIND       PRES   REMARKS
JACKSON        MOSUNNY   67  65  93 W5        30.16R
LAMBERTVILLE   CLOUDY    71  63  74 W3        30.16R
LANSING        MOSUNNY   67  63  87 W6        30.15R
LAPEER         FAIR      66  63  90 W5        30.14R
MASON          CLOUDY    67  64  89 NW6       30.15R
MONROE         SUNNY     69  64  84 W6        30.14R
MT. CLEMENS    MOSUNNY   70  63  79 W6        30.11R
PONTIAC        PTSUNNY   68  63  84 W5        30.14R
PORT HURON     SUNNY     66  63  88 W5        30.12R
TRI CITIES     MOSUNNY   67  64  90 W8        30.12R
MIDLAND        FAIR      63  62  94 W3        30.11S
TROY           SUNNY     71  63  76 NW8       30.15R
SAGINAW HB     MOSUNNY   70  63  78 W5        30.11R
$$
MIZ043>046-050>051-056>058-064>065-071>073-077>080-261400-
SOUTHWEST LOWER MICHIGAN

CITY           SKY/WX    TMP DP  RH WIND       PRES   REMARKS
BATTLE CREEK   PTSUNNY   67  67 100 W3        30.17R
BENTON HARBOR  CLOUDY    68  65  90 CALM      30.15R
BIG RAPIDS     MOSUNNY   66  64  94 CALM      30.14R
COLDWATER      MOSUNNY   65  65  99 CALM      30.17R
FREMONT        FAIR      65  63  94 CALM      30.14R
HOLLAND        MOSUNNY   67  64  90 CALM      30.16R
GRAND RAPIDS   CLOUDY    67  63  87 CALM      30.15R
IONIA          FAIR      65  63  94 SW3       30.14R
KALAMAZOO      PTSUNNY   70  65  84 CALM      30.16R
LUDINGTON      MOSUNNY   68  60  76 NW5       30.13R
MARSHALL       MOSUNNY   66  66 100 CALM      30.15R
MOUNT PLEASANT MOSUNNY   66  63  92 SW5       30.12R
MUSKEGON       PTSUNNY   68  64  87 CALM      30.15R
SOUTH HAVEN    CLOUDY    68  68  98 CALM      30.15R
$$
MIZ016>042-261400-
NORTHERN LOWER MICHIGAN

CITY           SKY/WX    TMP DP  RH WIND       PRES   REMARKS
ALPENA         SUNNY     66  57  72 W3        30.09R
BEAVER ISLAND  SUNNY     66  59  76 W7        30.08S
BELLAIRE       SUNNY     64  60  87 CALM      30.10S
CADILLAC       SUNNY     63  61  92 CALM      30.13R
CHARLEVOIX     SUNNY     69  59  70 W6        30.12R
FRANKFORT      SUNNY     65  60  82 CALM      30.11S
GAYLORD        SUNNY     63  56  78 W5        30.11R
GRAYLING       SUNNY     64  61  91 SW5       30.12R
HARBOR SPRINGS SUNNY     65  59  81 CALM      30.08S
HOUGHTON LAKE  SUNNY     66  61  84 W3        30.13R
MANISTEE       SUNNY     69  59  70 W8        30.13R
OSCODA         SUNNY     66  58  75 NW8       30.09R
PELLSTON       SUNNY     66  58  75 CALM      30.09R
ROGERS CITY    SUNNY     67  58  73 W6        30.09R
TRAVERSE CITY  MOSUNNY   65  61  87 SW3       30.10R
$$
MIZ007>008-015-261400-
EASTERN UPPER MICHIGAN

CITY           SKY/WX    TMP DP  RH WIND       PRES   REMARKS
KINROSS        SUNNY     60  57  89 W7        30.07R
MACKINAC ISLAN SUNNY     65  58  78 W7        30.08R
NEWBERRY       SUNNY     61  57  86 W7        30.07R
S. S. MARIE    MOSUNNY   66  60  81 VRB6      30.05R
MUNISING         N/A     64  57  78 W3        30.06
$$
MIZ004>006-011>014-085-261400-
CENTRAL UPPER MICHIGAN

CITY           SKY/WX    TMP DP  RH WIND       PRES   REMARKS
MANISTIQUE     SUNNY     63  57  81 W6        30.08R
ESCANABA       SUNNY     60  56  86 W9        30.10R
MENOMINEE      SUNNY    N/A N/A N/A CALM      30.13R
SAWYER-GWINN   SUNNY     57  55  94 W3        30.09R
$$
MIZ001>003-009>011-084-261400-
WESTERN UPPER MICHIGAN

CITY           SKY/WX    TMP DP  RH WIND       PRES   REMARKS
IRON MOUNTAIN  SUNNY     58  53  84 VRB5      30.11R
HOUGHTON       CLOUDY    60  53  77 NW12      30.08R
COPPER HARBOR    N/A     60  58  92 NE8G18    30.07R
IRONWOOD       CLOUDY    58  55  90 W9        30.14R
$$

ABBREVIATIONS USED IN REMARKS
   TC - TEMPERATURE IN CELSIUS
  WCI - WIND CHILL INDEX
   HX - HEAT INDEX
  VSB - VISIBILITY





USA.gov is the U.S. government's official web portal to all federal, state and local government web resources and services.